Temp
11 12 12 12 12 12 12 12 12 12 12 12 12 12 12 12 12 12 12 12 12 12 12 11 12 11 10 12 11 11 11 12 12 11 11 11 11 11 11 11 11 10 11 10 10
12 12 12 12 12 12 12 12 12 12 12 12 12 12 12 12 12 12 12 12 12 12 12 11 10 11 12 13 12 12 12 12 12 11 11 11 11 11 11 11 11 10 9 11 8
11 12 12 12 12 12 13 13 13 13 12 12 12 12 12 12 12 11 12 12 12 12 12 11 11 12 13 13 13 13 13 12 12 11 11 10 10 10 11 11 11 10 9 10 8
12 12 12 12 13 13 13 13 13 13 13 13 13 13 12 12 12 12 12 12 12 12 12 11 11 13 14 14 13 12 12 12 11 11 10 10 10 11 10 10 11 10 9 8 8
12 12 12 12 13 13 13 13 13 13 13 13 13 13 12 12 11 12 12 12 12 12 12 11 12 13 14 14 14 13 12 11 11 10 10 11 11 10 10 10 10 10 9 9 9
12 12 12 13 13 13 13 13 13 13 13 13 13 13 13 11 12 13 12 12 12 12 12 11 12 13 13 14 14 13 12 12 11 11 11 10 10 10 10 10 10 10 9 9 9
12 12 13 13 13 13 13 13 13 13 13 13 13 13 13 11 12 13 12 12 12 12 11 12 12 12 13 14 13 13 13 12 12 12 12 10 11 10 10 10 10 10 10 10 9
13 13 13 13 13 13 13 13 13 13 13 13 13 13 11 13 13 13 12 12 12 12 11 11 11 12 13 13 13 13 14 15 13 12 12 11 11 11 10 10 10 10 10 10 10
13 13 13 13 13 13 14 13 13 13 13 13 13 13 11 13 13 12 12 11 11 11 12 12 12 12 14 13 15 15 16 15 15 13 12 11 11 11 10 10 10 10 10 10 9
13 13 13 13 13 13 14 14 13 13 13 13 13 12 13 13 12 12 12 11 11 11 11 11 11 13 14 15 17 16 16 16 15 14 12 13 13 13 11 10 11 10 9 9 10
13 13 13 13 13 13 13 13 13 13 13 13 12 12 11 12 11 11 12 11 11 11 12 12 13 14 15 16 16 16 15 15 15 14 13 14 14 13 13 11 11 11 10 10 10
12 13 13 13 13 13 13 13 11 12 12 13 13 12 11 11 11 11 11 11 11 12 12 13 13 14 15 15 15 15 15 16 16 14 13 14 14 14 14 13 12 11 11 11 10
12 13 13 13 13 13 13 13 13 12 12 13 12 11 11 11 12 12 11 11 13 13 13 14 15 15 15 15 14 15 15 16 16 15 15 14 15 15 15 14 13 12 11 11 10
12 13 13 13 13 13 13 13 12 12 12 14 13 12 11 11 12 13 12 12 12 13 14 15 14 15 14 15 15 16 16 16 15 15 16 14 17 16 16 15 14 13 12 12 10
12 13 13 13 13 12 13 12 12 12 16 13 12 12 12 12 14 12 12 12 13 13 13 15 14 14 15 15 15 15 16 15 15 15 16 17 17 18 16 16 15 14 13 12 12
12 13 13 13 13 12 12 12 12 12 17 14 13 12 12 12 13 13 12 12 13 13 14 14 15 14 14 15 14 15 15 15 15 16 18 18 18 19 18 17 16 16 15 14 13
12 12 13 13 12 12 12 11 12 15 15 15 14 14 13 13 14 13 12 12 13 13 14 15 14 14 14 14 15 15 15 16 17 18 19 19 18 18 18 17 17 16 16 15 13
12 12 13 12 12 12 12 10 13 15 16 14 14 14 14 14 14 14 13 14 14 15 16 17 18 16 15 15 16 15 16 17 18 20 20 18 18 18 17 17 16 16 15 15 14
12 12 12 12 12 12 11 12 15 15 14 14 15 15 15 15 15 15 14 15 15 14 15 17 17 16 16 15 15 16 15 16 17 18 19 19 19 18 18 17 17 17 15 14 14
12 11 12 12 12 11 9 12 13 12 11 13 14 15 16 16 15 15 16 15 15 15 15 15 16 16 16 15 15 15 16 17 17 17 17 19 19 19 17 17 17 17 16 14 14
11 9 11 11 11 9 11 13 12 11 11 12 14 14 15 16 16 15 16 16 16 15 15 15 15 16 16 15 16 16 15 16 17 17 18 19 19 18 17 16 16 16 15 15 13
10 10 10 10 8 11 12 12 10 11 10 11 11 12 13 14 15 15 15 16 15 15 16 15 16 16 16 17 16 16 16 16 17 17 17 18 18 18 17 17 16 15 15 14 13
8 8 10 9 11 12 11 10 9 10 11 11 11 12 12 12 13 14 14 15 14 14 14 15 15 16 16 17 17 17 17 17 17 18 18 18 18 17 17 16 16 15 14 14 14
9 9 8 8 8 9 10 10 10 9 9 9 10 10 10 11 12 13 13 14 13 12 13 13 14 16 17 17 15 16 16 16 17 17 17 18 17 18 17 16 16 15 14 13 14
9 8 9 10 9 8 8 9 9 10 9 8 9 9 10 10 11 12 12 12 12 12 11 12 13 14 15 16 16 14 13 15 16 17 17 17 18 17 15 17 17 16 14 13 14
9 9 9 7 8 7 8 9 8 8 7 8 9 8 9 8 9 10 11 10 11 11 11 11 12 13 14 14 15 16 16 16 16 16 16 16 16 16 16 16 16 16 15 13 13
9 8 8 6 7 7 8 7 6 5 6 6 6 6 7 7 6 6 7 7 8 8 9 9 10 12 13 13 14 15 15 15 16 16 16 16 16 16 16 16 16 16 15 13 12
Height
3160 3161 3161 3161 3162 3162 3163 3163 3164 3165 3167 3168 3169 3171 3172 3173 3175 3176 3177 3178 3178 3179 3179 3180 3180 3181 3183 3186 3181 3178 3173 3176 3176 3176 3175 3176 3177 3177 3178 3180 3179 3177 3180 3174 3172
3161 3161 3161 3161 3161 3161 3162 3163 3163 3164 3165 3166 3168 3169 3171 3173 3174 3175 3177 3177 3178 3179 3180 3181 3183 3184 3186 3187 3185 3181 3177 3178 3178 3176 3176 3176 3177 3176 3179 3181 3180 3178 3177 3175 3177
3161 3161 3161 3161 3161 3161 3161 3162 3162 3163 3164 3164 3166 3168 3170 3172 3175 3175 3175 3176 3178 3179 3180 3182 3186 3187 3187 3186 3185 3183 3180 3180 3178 3176 3177 3176 3178 3179 3180 3180 3180 3180 3178 3177 3178
3162 3161 3161 3161 3161 3161 3161 3161 3162 3162 3163 3163 3165 3166 3168 3172 3178 3170 3174 3175 3177 3179 3181 3183 3186 3188 3187 3186 3185 3180 3182 3181 3179 3175 3176 3177 3176 3177 3178 3176 3181 3180 3179 3180 3182
3162 3162 3161 3161 3161 3161 3161 3161 3161 3162 3162 3162 3163 3165 3167 3171 3172 3170 3172 3174 3177 3179 3181 3185 3187 3188 3186 3185 3185 3184 3183 3181 3179 3177 3177 3175 3176 3175 3177 3179 3182 3181 3180 3181 3185
3163 3162 3161 3161 3161 3161 3161 3161 3161 3162 3162 3162 3163 3164 3167 3170 3167 3169 3171 3174 3176 3178 3180 3184 3187 3187 3186 3185 3185 3183 3183 3182 3180 3179 3178 3176 3176 3177 3176 3178 3181 3181 3181 3183 3185
3162 3162 3162 3161 3161 3161 3161 3161 3162 3162 3162 3162 3163 3164 3165 3170 3166 3167 3170 3173 3175 3177 3181 3183 3185 3186 3186 3185 3184 3183 3183 3181 3180 3179 3178 3175 3176 3175 3174 3176 3178 3181 3182 3184 3185
3162 3162 3161 3161 3161 3161 3161 3162 3162 3161 3162 3162 3163 3164 3165 3162 3165 3166 3168 3171 3173 3176 3178 3180 3181 3183 3185 3184 3183 3182 3181 3178 3178 3178 3177 3175 3174 3173 3174 3174 3176 3179 3182 3184 3185
3162 3161 3161 3160 3160 3161 3161 3161 3161 3161 3161 3162 3163 3163 3167 3163 3163 3165 3167 3170 3173 3174 3176 3177 3180 3182 3184 3183 3178 3177 3175 3176 3178 3176 3177 3176 3175 3175 3172 3173 3176 3177 3180 3182 3184
3161 3160 3160 3160 3160 3160 3160 3160 3160 3161 3161 3162 3162 3165 3163 3162 3162 3164 3166 3170 3171 3174 3175 3176 3179 3180 3181 3180 3173 3176 3175 3175 3176 3177 3175 3175 3174 3174 3173 3172 3174 3173 3176 3179 3182
3159 3159 3159 3158 3158 3158 3159 3160 3163 3163 3160 3161 3164 3162 3161 3163 3162 3163 3165 3167 3171 3173 3174 3176 3178 3176 3176 3176 3175 3174 3176 3176 3175 3175 3175 3173 3172 3172 3172 3171 3172 3172 3171 3175 3178
3157 3156 3156 3156 3156 3157 3157 3157 3157 3158 3159 3157 3157 3158 3161 3160 3162 3163 3164 3168 3170 3171 3173 3176 3173 3174 3174 3174 3174 3175 3175 3173 3172 3173 3172 3171 3169 3168 3169 3168 3168 3169 3172 3173 3174
3155 3154 3154 3154 3154 3154 3155 3155 3155 3156 3157 3158 3155 3156 3158 3160 3163 3164 3163 3166 3169 3169 3170 3170 3171 3170 3172 3172 3173 3173 3172 3170 3171 3170 3168 3166 3162 3162 3164 3165 3166 3167 3168 3170 3170
3152 3152 3151 3151 3153 3151 3152 3153 3154 3155 3157 3154 3152 3152 3156 3158 3160 3163 3160 3166 3166 3167 3168 3167 3168 3168 3169 3169 3171 3168 3169 3169 3170 3169 3163 3161 3158 3154 3158 3161 3163 3163 3163 3166 3165
3150 3149 3148 3148 3149 3149 3151 3151 3153 3156 3152 3151 3150 3148 3153 3156 3158 3158 3160 3162 3163 3165 3166 3164 3164 3165 3165 3167 3167 3167 3167 3168 3168 3166 3162 3155 3155 3151 3156 3157 3157 3158 3159 3161 3164
3147 3146 3146 3145 3146 3147 3148 3150 3153 3158 3147 3148 3148 3147 3151 3152 3157 3158 3157 3160 3162 3162 3161 3160 3161 3161 3161 3162 3163 3165 3166 3166 3165 3161 3154 3148 3148 3145 3148 3153 3154 3156 3156 3156 3159
3145 3144 3143 3143 3144 3145 3147 3151 3156 3150 3147 3147 3147 3147 3148 3151 3154 3154 3156 3157 3158 3160 3156 3156 3156 3157 3158 3158 3159 3162 3163 3159 3155 3148 3142 3142 3148 3148 3148 3149 3151 3152 3153 3153 3153
3142 3142 3141 3141 3142 3144 3147 3153 3152 3145 3145 3145 3146 3147 3147 3149 3151 3153 3154 3154 3155 3155 3152 3149 3146 3149 3153 3154 3155 3157 3157 3151 3144 3138 3136 3142 3144 3144 3145 3146 3148 3148 3149 3149 3150
3141 3140 3140 3140 3141 3143 3147 3151 3145 3145 3145 3146 3146 3145 3145 3147 3149 3150 3150 3150 3151 3153 3153 3147 3146 3147 3150 3151 3153 3152 3153 3153 3148 3145 3142 3138 3138 3140 3140 3143 3144 3144 3145 3146 3147
3140 3140 3140 3140 3140 3142 3147 3146 3146 3144 3144 3145 3144 3142 3141 3143 3146 3146 3145 3146 3147 3148 3149 3149 3147 3145 3146 3148 3149 3149 3149 3149 3147 3146 3141 3134 3134 3133 3138 3142 3142 3143 3142 3143 3144
3140 3144 3141 3140 3141 3143 3146 3146 3144 3143 3143 3145 3143 3142 3142 3139 3139 3141 3142 3143 3143 3144 3145 3146 3147 3144 3142 3144 3142 3145 3146 3146 3144 3142 3138 3133 3129 3131 3136 3140 3142 3141 3141 3141 3142
3140 3147 3141 3140 3144 3146 3145 3144 3141 3142 3142 3141 3141 3141 3140 3139 3138 3139 3138 3138 3138 3140 3140 3142 3141 3137 3136 3136 3137 3138 3138 3141 3141 3140 3137 3135 3133 3131 3134 3137 3139 3140 3139 3139 3139
3141 3142 3138 3140 3144 3144 3143 3141 3139 3141 3141 3140 3139 3139 3138 3138 3138 3137 3136 3136 3134 3138 3139 3139 3135 3134 3132 3131 3129 3129 3132 3133 3133 3131 3130 3132 3129 3132 3132 3134 3135 3136 3136 3134 3135
3139 3144 3141 3139 3139 3140 3141 3140 3139 3136 3135 3136 3136 3136 3136 3135 3135 3134 3133 3133 3131 3134 3133 3135 3132 3129 3124 3121 3124 3124 3129 3129 3129 3129 3127 3125 3127 3126 3128 3131 3132 3131 3134 3132 3132
3138 3140 3138 3142 3140 3137 3137 3137 3137 3137 3135 3134 3133 3133 3133 3132 3131 3130 3130 3130 3130 3129 3129 3132 3128 3127 3124 3121 3121 3122 3129 3126 3122 3122 3122 3121 3121 3124 3129 3126 3127 3127 3130 3130 3130
3137 3136 3135 3135 3133 3133 3134 3136 3134 3134 3132 3131 3132 3130 3130 3129 3129 3127 3126 3126 3124 3126 3124 3125 3121 3122 3117 3118 3117 3115 3116 3118 3117 3118 3120 3121 3119 3122 3123 3124 3125 3125 3127 3128 3127
3134 3133 3133 3134 3134 3134 3134 3131 3130 3127 3126 3126 3125 3125 3125 3125 3118 3119 3118 3119 3119 3119 3120 3121 3120 3117 3107 3114 3112 3108 3111 3111 3111 3112 3113 3113 3115 3118 3119 3120 3120 3121 3123 3124 3125
Wind_Speed
3 4 5 6 8 9 10 12 14 14 13 13 13 12 11 10 9 8 8 6 5 3 4 6 5 3 3 5 6 8 4 8 4 2 3 5 8 13 6 1 0 2 3 10 7
3 2 3 5 6 7 8 10 11 12 13 15 15 14 13 11 10 9 9 7 6 5 6 6 1 2 2 5 5 8 8 9 5 2 4 5 7 9 7 5 1 7 10 4 13
4 3 2 3 4 5 6 7 9 9 11 12 14 15 14 12 10 9 11 10 8 6 6 5 2 1 1 3 4 5 8 8 9 1 4 4 6 6 5 6 3 7 11 7 13
3 3 2 2 3 4 5 6 7 8 8 10 11 13 14 14 4 20 13 12 10 8 6 5 2 1 2 2 4 5 5 5 6 8 3 4 6 11 6 8 4 8 11 12 11
2 2 2 2 2 3 4 5 5 6 7 8 10 12 13 15 12 7 16 14 11 9 7 7 4 2 5 4 4 1 4 4 5 5 3 3 5 12 12 9 6 9 12 11 11
1 1 1 1 2 2 3 4 5 5 5 6 8 11 12 10 26 15 12 15 13 11 9 9 5 7 4 4 5 3 2 3 4 4 2 4 5 5 11 9 12 10 10 11 11
1 1 2 2 2 2 3 3 4 4 4 5 6 9 12 11 20 15 12 16 15 14 9 10 10 5 4 5 4 4 5 6 4 5 3 3 7 10 10 11 15 11 10 11 12
1 1 2 2 3 3 3 3 4 4 4 4 5 7 9 20 14 13 13 18 18 17 13 11 11 9 7 7 5 4 7 3 2 4 7 2 6 11 12 14 10 13 14 13 13
2 1 2 3 4 4 4 5 5 5 5 5 6 7 7 9 13 13 13 17 17 17 17 14 11 10 8 8 13 9 7 4 4 9 2 2 2 3 8 12 15 16 17 17 15
4 3 3 4 4 5 5 5 6 7 8 7 7 4 10 9 12 13 12 14 16 14 15 14 11 12 12 14 16 5 8 4 6 5 5 4 6 6 9 12 14 15 20 19 18
6 6 5 6 5 6 7 8 6 7 12 8 7 7 2 6 14 14 13 12 14 15 17 13 16 18 13 15 13 12 9 10 8 7 6 6 8 7 9 12 13 16 17 19 21
9 9 8 8 8 7 8 11 13 15 9 14 16 14 10 10 12 14 14 13 14 17 16 17 20 17 15 14 14 13 14 13 8 7 7 9 11 11 11 13 15 18 21 20 21
10 10 9 9 8 8 9 11 11 12 11 11 16 18 15 13 14 16 17 15 13 14 18 21 17 9 18 17 16 16 15 14 11 13 15 14 17 12 12 12 14 17 17 21 26
10 11 9 9 8 7 8 8 9 8 6 14 11 16 19 12 15 14 19 15 14 15 15 20 19 19 14 16 17 19 13 12 12 14 17 6 12 10 10 9 13 14 19 19 23
9 10 9 9 8 7 7 8 7 6 6 9 8 15 14 18 3 17 17 17 15 14 13 19 14 19 23 18 12 17 13 10 12 15 16 17 12 5 8 9 10 13 14 20 23
7 7 8 7 7 6 7 8 8 5 5 4 7 8 14 21 11 11 16 17 13 14 17 20 15 17 17 18 21 16 15 15 14 16 18 17 17 6 8 7 4 5 10 16 23
6 6 5 4 6 6 7 10 4 12 1 6 4 9 14 18 22 12 17 19 17 14 18 16 19 21 15 13 16 18 16 19 16 15 11 4 4 14 16 12 12 8 9 14 21
6 5 4 3 5 6 11 7 9 4 4 5 4 6 13 15 19 15 16 20 20 17 15 13 16 18 17 17 15 20 20 20 11 9 11 1 6 9 7 7 10 11 9 13 18
5 3 2 1 4 8 14 10 8 3 5 5 7 10 14 17 14 16 18 20 20 19 20 15 10 5 11 17 19 19 21 19 23 20 19 22 12 12 11 8 9 10 8 12 15
5 3 2 0 4 9 7 14 7 8 7 6 10 8 14 17 19 18 19 13 21 19 19 19 18 12 6 11 20 24 16 15 20 13 15 17 15 11 6 5 4 6 7 11 13
3 4 3 2 5 9 8 6 9 8 6 7 8 11 11 14 19 21 18 18 16 18 21 19 21 20 11 14 18 21 25 23 19 15 13 12 9 3 6 7 5 5 4 8 11
5 2 6 2 2 5 10 12 13 7 8 10 12 13 13 13 16 17 22 20 11 16 16 20 22 25 25 21 15 22 21 21 25 21 22 13 17 8 5 9 6 4 5 9 9
2 2 4 5 2 9 11 9 9 8 8 8 9 11 12 16 17 17 18 16 16 14 15 19 26 27 25 23 24 24 24 23 23 24 20 14 15 4 3 8 10 5 7 10 7
5 1 6 4 8 7 9 10 11 13 11 12 11 12 13 17 19 22 18 19 15 15 24 22 24 25 29 27 9 12 20 27 26 28 27 23 21 16 8 7 9 9 10 10 11
5 4 5 1 5 5 9 9 9 10 11 10 10 13 14 15 16 20 21 24 25 19 22 22 29 30 33 34 22 19 23 20 26 28 24 28 24 11 15 10 9 10 9 12 12
6 2 4 6 8 6 8 5 8 10 12 11 13 14 14 16 16 21 21 19 19 17 18 20 30 30 36 34 35 35 31 31 29 27 27 28 30 26 24 11 13 9 11 15 16
8 5 4 9 5 5 7 8 7 10 10 9 12 14 14 15 19 18 19 22 22 21 21 21 24 28 36 32 35 39 36 32 31 30 30 32 29 22 25 21 17 13 14 16 19
Wind_Direction
115 147 167 180 192 201 207 214 221 222 219 218 216 210 208 207 201 197 185 184 172 150 131 111 90 41 6 348 340 352 110 22 33 255 200 200 161 183 182 111 11 55 122 227 142
102 139 170 181 192 199 207 215 223 225 224 225 224 221 215 215 214 210 206 193 185 175 144 111 23 294 359 325 312 342 6 8 355 2 191 184 186 212 184 180 113 115 136 156 146
83 99 157 189 196 200 206 211 216 220 223 226 225 224 221 218 228 237 212 200 194 187 150 149 213 284 335 354 334 343 11 13 15 209 185 208 211 175 181 200 135 151 151 160 149
76 84 114 163 188 193 195 200 205 212 215 219 221 220 216 210 187 239 217 210 195 191 160 176 198 187 316 324 333 311 29 31 27 35 142 192 200 197 218 156 126 161 159 156 153
71 91 105 131 166 185 189 190 199 205 211 216 217 214 208 205 225 228 213 214 203 194 178 191 199 260 302 268 297 30 340 7 24 41 67 214 200 199 209 190 173 164 161 161 158
95 123 157 161 149 164 184 189 198 202 206 213 216 213 203 193 231 224 219 213 207 201 196 205 202 243 249 268 301 333 308 321 353 330 313 259 233 207 206 208 167 174 170 170 174
119 166 185 196 196 175 179 187 200 206 209 214 215 211 205 201 234 229 225 209 210 207 207 225 226 227 298 262 248 286 301 300 312 322 299 268 244 215 229 214 187 184 174 180 177
22 187 189 204 209 205 193 189 204 216 217 219 217 210 164 234 234 222 219 206 211 214 211 217 228 237 245 277 277 283 259 300 286 354 296 266 314 190 207 213 212 184 193 189 186
317 287 244 226 222 217 201 205 212 217 220 218 220 219 234 235 222 219 214 210 218 223 230 237 230 237 247 252 237 223 274 7 318 320 309 291 286 192 232 204 216 204 199 198 196
297 279 264 253 237 232 218 214 220 222 221 219 224 215 271 251 212 211 204 197 214 222 234 235 234 237 237 240 252 211 288 273 309 308 314 281 271 252 235 213 220 223 202 203 205
292 281 265 259 246 235 223 215 233 274 238 201 270 189 252 195 203 209 215 213 212 225 228 237 229 233 238 240 263 290 275 273 284 288 302 280 273 261 244 228 216 223 222 210 206
293 286 276 267 256 240 229 215 218 219 247 236 224 215 197 208 206 207 214 203 220 226 228 226 236 241 240 246 262 262 264 261 273 281 280 278 271 253 236 234 222 215 210 222 202
293 290 287 282 273 255 238 228 228 234 248 253 235 230 227 219 212 217 212 211 223 233 226 231 231 249 241 249 254 257 257 263 284 289 282 268 274 238 223 227 227 222 220 221 221
285 286 291 276 274 260 240 230 226 231 253 224 248 229 211 211 224 213 224 209 226 237 237 236 241 248 252 247 246 255 250 256 277 283 286 253 289 255 215 221 227 226 221 218 225
289 281 294 272 259 251 233 214 205 181 269 173 193 208 198 199 244 208 213 209 222 241 231 238 247 240 246 245 241 250 246 257 270 276 272 262 235 180 230 214 233 233 231 222 217
309 287 296 276 242 245 213 192 173 209 248 195 222 207 191 202 207 194 208 207 233 238 245 244 237 243 247 247 242 243 248 253 258 262 264 254 241 266 222 224 226 261 251 231 216
315 308 299 273 231 218 185 161 210 244 226 226 240 213 203 206 202 220 206 214 215 223 236 247 247 243 252 247 232 222 224 234 232 228 252 147 276 289 274 254 267 259 256 233 215
316 319 294 269 218 194 166 169 251 277 246 236 217 220 206 198 204 226 218 221 225 232 273 254 248 222 233 230 217 221 222 241 252 276 311 202 260 267 280 243 245 265 266 224 209
327 315 320 260 194 170 161 213 266 260 256 266 253 230 215 212 218 222 226 232 233 236 248 284 231 195 244 236 222 218 224 243 275 278 271 270 267 295 266 227 250 257 239 205 203
2 39 11 101 167 169 193 235 279 248 279 271 255 236 232 220 227 235 229 244 239 237 242 246 268 269 271 239 234 231 231 234 236 259 261 259 267 245 194 252 275 286 249 214 205
27 73 323 109 155 175 220 261 249 277 266 255 252 255 255 257 232 235 238 251 242 244 237 243 250 262 235 244 242 220 240 244 266 283 301 283 300 91 199 226 258 291 251 227 217
75 311 295 181 174 235 256 255 255 261 284 256 262 256 255 252 252 248 251 251 258 233 238 241 249 248 248 250 240 234 229 231 237 240 246 280 284 295 238 229 248 276 235 215 216
40 254 248 180 213 263 257 263 262 257 270 256 255 260 245 252 260 258 252 248 247 233 254 241 246 254 259 257 240 225 233 241 245 246 268 280 286 255 233 243 240 247 224 246 241
36 328 314 246 251 255 274 267 259 283 262 264 261 259 270 262 257 257 254 247 257 256 249 247 247 248 256 258 326 255 252 244 241 244 252 246 259 280 244 278 250 241 223 236 246
38 265 225 224 274 257 267 263 260 259 280 271 281 267 267 268 265 256 257 259 258 270 259 242 250 255 259 260 260 223 239 254 247 249 263 267 267 289 284 273 266 231 221 215 224
349 326 286 275 284 287 280 284 261 262 273 274 266 265 269 264 268 268 261 265 257 252 253 248 257 257 262 259 258 264 257 251 254 257 254 260 269 264 270 275 258 242 230 213 207
343 328 323 283 298 304 260 255 263 282 297 270 270 268 274 278 262 258 254 253 251 255 256 258 265 264 262 258 260 257 253 258 258 259 256 259 255 258 265 261 259 238 230 211 202